{"data":{"norad_id":61219,"epoch":"2026-09-21T21:24:57.163392Z","epoch_age_seconds":71805,"freshness":"FRESH","line1":"1 61219U 24171V   26264.89232828  .00002056  00000+0  77984-4 0  9997","line2":"2 61219  53.1589 129.9886 0002040  33.7691 326.3440 15.31710343113331","mean_motion":15.31710343,"eccentricity":0.000204,"inclination_deg":53.1589,"raan_deg":129.9886,"arg_perigee_deg":33.7691,"mean_anomaly_deg":326.344,"bstar":7.7984e-5,"rev_number":11333,"period_min":94.012553129309,"perigee_km":469.311998837,"apogee_km":472.10632807169,"semimajor_km":6848.8461634543,"source":"CELESTRAK","updated_at":"2026-09-22T09:00:49.346790Z"}}